Location: Newark
(48.5667°N, 12.8167°E)
Time: 07:49:28
(UTC+00:00)

METEOR M2 - Pass Details

Date: 26 November 2019
Orbit: 818 x 828 km, 98.5° (Epoch: 06 December)

Event Time Altitude Azimuth Distance (km) Brightness Sun altitude
Exits shadow 17:37:00 14° 15° (NNE) 2,153 ? -22.2°
Drops below altitude 10° 17:37:57 10° 8° (N) 2,432 ? -22.4°
Sets 17:40:42 0° 355° (N) 3,368 ? -22.8°
